ATLAS 5 CENTAUR DEB, 50214

Orbit data source: Space-Track

ATLAS 5 CENTAUR DEB, 50214 is space debris in GEO originally from a launch on Tue, 07 Dec 2021 UTC launched from the Air Force Eastern Test Range (AFETR). Debris objects in space refer to the collection of defunct objects orbiting the Earth. Examples of debris include non-operational satellites, rocket bodies, and fragments generated from explosions, collisions, or faulty payload assembly.

Not visible in the next 10 days
Identifier
50214, 2021-118D
Orbit
GEO
Last TLE update
1 day ago
Origin
Manufacturer
NGIS/HARRL3?
Mission
Defense Technology
Bus & Motor
ESPASAT, Unknown motor
Mass
~100 kg wet, 80 kg dry
Launch date (UTC)
2021-12-07 (4 years ago)
Launch vehicle
Unknown
Launch site
Air Force Eastern Test Range (AFETR)
Object type
Payload
Rocket body
Debris
Shape & HBR
Unknown
Radar Cross Section
0.600 m², Large (>1 m²)

Expand to show TLE details & history

TLE from 1 day ago
0 ATLAS 5 CENTAUR DEB
1 50214U 21118D   25188.99597368 -.00000257  00000-0  00000-0 0  9990
2 50214   3.4216  81.8635 0012747  47.4998 312.2612  0.99333556 13007
Epoch: 2025-07-07T23:54Z
TLE epoch observation values (Epoch: 2025-07-07T23:54:12.125Z)
Latitude
Longitude
156.77222°
Altitude
36,014.563 km
Speed
3.068 km/s
True Right ascension
05h 26m 04s
True Declination
0° 00' 00"
Sunlit
Object was in daylight at epoch
Visualization orbit readout
Latitude
3.04665°
Longitude
-85.36979°
Altitude
36,032.446 km
Speed
3.066 km/s
Apparent Right ascension
12h 52m 20s
Apparent Declination
-2° 23' 09"
Sunlit
Object is in daylight
Visualization observer readout
Local Sidereal Time
20:06:49
Azimuth
280.343° WNW
Elevation
-15.749°
Doppler factor
1
Orbital elements
Apogee altitude
36,106.828 km
Perigee altitude
35,998.655 km
Semi-major axis
42,430.878 km
Eccentricity
0.00127
Inclination
3.4216°
RAAN
81.8635°
Arg. of periapsis
47.4998°
True anomaly
Unknown
Mean anomaly
312.2612°
Eccentric anomaly
Unknown
Mean motion
0.24832 °/min
Orbital period
1,449.71 mins
BSTAR
0
Loading historical data...
50214 neighbors
Loading maneuver chart data...
Loading SW <> Apogee altitude chart data...
Loading historical data...
Loading historical data...
Loading historical data...
Loading historical data...
Loading historical data...
Loading historical data...
Loading historical data...
Other satellites on launch #118 in the year 2021 (2021-12-07 UTC)

ATLAS 5 CENTAUR DEB Visibility

Observer location: undefined°, undefined°

ATLAS 5 CENTAUR DEB is likely not visible in the next few days
Span
Click to sort rows by Start time (UTC) header in descending order
Start Az.
Max El. time (UTC)
Max El. Az.
Max El.
End time (UTC)
End Az.
|